FW0304 Weather Reports


time (UTC)temp
F
wind
direction
speed
knots
gust
knots
rain 1hr
in
rain 24hr
in
rain mn
in
humidity
%
barometer
mb
20260504233021 75 46 0.0 1.7 0.00 0.02 0.02 48 1012.4
20260504231526 76 165 0.0 1.7 0.00 0.02 0.02 45 1012.5
20260504230007 76 19 0.0 2.6 0.00 0.02 0.02 45 1012.5
20260504224508 77 183 0.9 3.5 0.00 0.02 0.02 43 1012.5
20260504223012 77 78 0.0 3.5 0.00 0.02 0.02 44 1012.8
20260504221521 77 75 0.0 1.7 0.00 0.02 0.02 44 1012.9
20260504220012 77 77 0.0 3.5 0.00 0.02 0.02 43 1013.0
20260504214509 77 119 0.0 7.0 0.00 0.02 0.02 43 1013.2
20260504213012 78 281 0.9 1.7 0.00 0.02 0.02 40 1013.4
20260504211515 77 180 0.0 1.7 0.00 0.03 0.02 43 1013.5
20260504210020 77 327 0.0 1.7 0.00 0.03 0.02 42 1013.6
20260504204503 78 318 0.0 1.7 0.00 0.03 0.02 43 1013.9
20260504203019 78 193 1.7 9.6 0.00 0.03 0.02 44 1014.0
20260504201512 77 306 0.0 7.0 0.00 0.03 0.02 46 1014.2
20260504200024 78 210 0.9 5.2 0.00 0.03 0.02 42 1014.6
20260504194504 78 210 0.0 1.7 0.00 0.03 0.02 43 1014.7
20260504193015 78 249 0.9 6.1 0.00 0.03 0.02 44 1014.9
20260504191512 77 313 0.0 5.2 0.00 0.03 0.02 45 1014.9
20260504190016 78 170 1.7 7.0 0.00 0.03 0.02 39 1015.1
20260504184533 78 133 1.7 3.5 0.01 0.03 0.02 43 1015.0
20260504183007 78 152 0.9 4.3 0.01 0.03 0.02 44 1015.2
20260504181513 76 173 0.0 3.5 0.01 0.03 0.02 45 1015.3
20260504180020 77 325 0.0 7.8 0.01 0.03 0.02 48 1015.6
20260504174520 77 291 0.0 1.7 0.00 0.02 0.01 46 1015.7
20260504171508 75 308 0.0 2.6 0.00 0.02 0.01 52 1016.2
20260504081510 52 346 0.0 1.7 0.00 0.02 0.00 90 1016.8
20260504050008 52 346 0.0 1.7 0.00 0.02 0.00 89 1018.4
20260504044511 52 346 0.0 0.0 0.00 0.02 0.02 90 1018.4
20260504043011 52 346 0.0 1.7 0.00 0.02 0.02 89 1018.6
20260504041504 52 346 0.0 0.0 0.00 0.02 0.02 89 1018.7
20260504040010 53 346 0.0 0.0 0.00 0.02 0.02 89 1018.7
20260504034521 53 346 0.0 0.0 0.00 0.02 0.02 88 1018.7
20260504033015 53 346 0.0 0.0 0.00 0.02 0.02 87 1018.8
20260504031504 54 346 0.0 0.0 0.00 0.02 0.02 86 1019.0
20260504030006 55 346 0.0 0.0 0.00 0.02 0.02 86 1018.7
20260504024510 55 346 0.0 0.0 0.00 0.02 0.02 84 1018.7
20260504023015 56 346 0.0 0.0 0.00 0.02 0.02 83 1018.5
20260504021512 57 346 0.0 0.0 0.00 0.02 0.02 80 1018.3
20260504020005 57 346 0.0 0.0 0.00 0.02 0.02 79 1018.2
20260504014516 58 346 0.0 0.0 0.00 0.02 0.02 75 1018.0
20260504013017 59 346 0.0 0.0 0.00 0.02 0.02 76 1017.9
20260504011515 60 346 0.0 0.0 0.00 0.02 0.02 73 1017.8
20260504010021 61 346 0.0 0.0 0.00 0.02 0.02 72 1017.7
20260504004506 63 346 0.0 0.0 0.00 0.03 0.02 70 1017.7
20260504003011 64 346 0.0 0.0 0.00 0.03 0.02 69 1017.6
20260504001519 65 346 0.0 0.0 0.00 0.03 0.02 67 1017.6
20260504000018 67 346 0.0 0.0 0.00 0.03 0.02 61 1017.5
20260503234523 69 346 0.0 0.0 0.00 0.03 0.02 52 1017.6